Home > Weather > Rome > Past weeks

Flag for Italy Weather for the Past 2 Weeks in Rome, Italy

Now
46 °F

Passing clouds.


Feels Like: 44 °F
Forecast: 44 / 56 °F
Wind: 5 mph from Southeast

Location: Rome / Ciampino

Current Time: Feb 11, 2016 at 12:08:37 AM

Latest Report: Feb 10, 2016 at 11:20 PM


Visibility: N/A

Pressure: 29.77 "Hg

Humidity: 62%

Dew point: 34 °F

Location of RomeLocation

Historic Weather in Rome — Graph

°F

Rome Temperature Yesterday

Maximum temperature yesterday: 57 °F (at 12:50 PM)
Minimum temperature yesterday: 43 °F (at 9:20 PM)
Average temperature yesterday: 53 °F

High & Low Weather Summary for the Past Weeks

 TemperatureHumidityPressure
High64 °F (Feb 2, 1:50 PM)100% (Jan 27, 2:50 AM)30.54 "Hg (Jan 27, 2:50 AM)
Low34 °F (Feb 5, 3:20 AM)28% (Feb 4, 3:50 PM)29.53 "Hg (Feb 10, 4:50 AM)
Average52 °F76%30.22 "Hg
* Reported Jan 26 9:20 PM — Feb 10 9:50 PM, Rome, Weather by CustomWeather, © 2016

Note: Actual official high and low records may vary slightly from our data, if they occured in-between our weather recording intervals... More about our weather records

Advertising

Rome Weather History for the Previous 24 Hours

 ConditionsComfort  
Time TempWeatherWind HumidityBarometerVisibility
9:50 PM
Wed, Feb 10
46 °FPassing clouds.5 mph62%29.77 "HgN/A
9:20 PM43 °FPassing clouds.6 mph71%29.77 "HgN/A
8:50 PM46 °FClear.2 mph57%29.77 "Hg10 mi
8:20 PM46 °FClear.1 mph57%29.77 "Hg10 mi
7:50 PM46 °FClear.1 mph57%29.74 "Hg10 mi
7:20 PM48 °FPassing clouds.7 mph50%29.74 "HgN/A
6:50 PM48 °FClear.2 mph50%29.74 "Hg10 mi
6:20 PM50 °FPassing clouds.6 mph43%29.71 "HgN/A
5:50 PM50 °FClear.6 mph43%29.71 "Hg10 mi
5:20 PM52 °FSunny.12 mph38%29.68 "Hg10 mi
4:50 PM52 °FSunny.16 mph41%29.65 "Hg10 mi
4:20 PM54 °FPassing clouds.15 mph41%29.65 "HgN/A
3:50 PM54 °FPassing clouds.14 mph44%29.65 "HgN/A
3:20 PM55 °FPassing clouds.13 mph44%29.62 "HgN/A
2:50 PM55 °FPassing clouds.17 mph41%29.62 "HgN/A
2:20 PM54 °FPassing clouds.5 mph67%29.62 "HgN/A
1:50 PM52 °FScattered clouds.3 mph72%29.62 "HgN/A
1:20 PM48 °FLight rain. Scattered clouds.14 mph66%29.62 "HgN/A
12:50 PM57 °FScattered clouds.13 mph63%29.59 "HgN/A
12:20 PM55 °FScattered clouds.15 mph63%29.59 "HgN/A
11:50 AM55 °FScattered clouds.14 mph63%29.62 "HgN/A
11:20 AM55 °FPartly sunny.14 mph67%29.62 "HgN/A
10:50 AM55 °FScattered clouds.12 mph67%29.62 "HgN/A
10:20 AM54 °FScattered clouds.12 mph72%29.62 "HgN/A
9:50 AM54 °FScattered clouds.10 mph72%29.59 "HgN/A
9:20 AM54 °FScattered clouds.13 mph72%29.59 "HgN/A
8:50 AM54 °FScattered clouds.7 mph72%29.59 "HgN/A
8:20 AM54 °FScattered clouds.7 mph72%29.62 "HgN/A
7:50 AM52 °FScattered clouds.6 mph77%29.59 "HgN/A
7:20 AM54 °FScattered clouds.10 mph77%29.59 "HgN/A
6:50 AM54 °FPassing clouds.7 mph82%29.59 "Hg6 mi
6:20 AM54 °FPartly cloudy.7 mph82%29.56 "Hg6 mi
5:50 AM55 °FRain. Partly cloudy.18 mph88%29.53 "Hg6 mi
5:20 AM55 °FRain. Partly cloudy.18 mph88%29.53 "Hg6 mi
4:50 AM55 °FRain. Partly cloudy.18 mph88%29.53 "Hg6 mi
4:20 AM55 °FRain. Partly cloudy.18 mph88%29.56 "Hg6 mi
3:50 AM55 °FRain. Partly cloudy.18 mph88%29.56 "Hg6 mi
2:50 AM55 °FPartly cloudy.54 mph88%29.56 "Hg6 mi
2:20 AM55 °FPartly cloudy.13 mph88%29.59 "Hg6 mi
1:20 AM55 °FPartly cloudy.14 mph88%29.62 "HgN/A
12:50 AM55 °FPartly cloudy.15 mph88%29.65 "HgN/A
12:20 AM55 °FPartly cloudy.15 mph88%29.65 "HgN/A
Weather by CustomWeather, © 2016

See weather overviewHow to use our weather pages